World > North America > United States > South Carolina > Greenbrier  

Greenbrier, SC Hourly Weather Updates

Feedback E-mail the Weather

Quick Clicks

Greenbrier, SC Weather Maps

°F °C°F °C
Greenbrier Weather Map
UTC Time: 5/18/2024, 13:25
Your Time:

Greenbrier, SC Regional Weather

Expires:202405181400;;424123
ASUS42 KCAE 181310
RWRCAE
REGIONAL WEATHER ROUNDUP
NATIONAL WEATHER SERVICE COLUMBIA SC
900 AM EDT SAT MAY 18 2024

NOTE: "FAIR" INDICATES FEW OR NO CLOUDS BELOW 12,000 FEET WITH NO
SIGNIFICANT WEATHER AND/OR OBSTRUCTIONS TO VISIBILITY.

NOT ALL STATIONS ARE QUALITY CONTROLLED BY THE NATIONAL 
WEATHER SERVICE. USE DATA WITH CAUTION...ESPECIALLY 
DEWPOINT OBSERVATIONS.


SCZ001>059-115-116-135>137-GAZ040-063>065-077-181400-
...UPSTATE SOUTH CAROLINA...
  
CITY           SKY/WX    TMP DP  RH WIND       PRES   REMARKS
ANDERSON       CLOUDY    69  65  86 S7        29.91S                  
LIBERTY        CLOUDY    68  68 100 CALM      29.90F                  
SPARTANBURG    CLOUDY    68  64  88 W5        29.90F                  
CLEMSON        CLOUDY    68  67  96 CALM      29.91F                  
GREENVILLE     CLOUDY    69  66  90 VRB5      29.91F                  
GREENWOOD      CLOUDY    67  66  97 VRB3      29.93R                  
GREER          CLOUDY    69  64  84 W7        29.91F                  
ROCK HILL      MOSUNNY   70  67  90 W8        29.91S                  
CHESTER        PTSUNNY   70  68  94 CALM      29.92S                  
LAURENS        CLOUDY    68  68 100 CALM      29.92S                  


...CENTRAL SOUTH CAROLINA...
  
CITY           SKY/WX    TMP DP  RH WIND       PRES   REMARKS
COLUMBIA APT   CLOUDY    71  67  87 CALM      29.90S                  
COLUMBIA OWENS CLOUDY    71  67  87 CALM      29.91S                  
MCENTIRE ANGB  CLOUDY    71  68  90 CALM      29.88F                  
ORANGEBURG     LGT RAIN  74  71  91 CALM      29.91S                  
SUMTER SHAW    CLOUDY    73  69  88 S5        29.89F                  
BARNWELL       RAIN      70  68  94 CALM      29.92S                  
MANNING        CLOUDY    72  70  94 CALM      29.92F FOG              
CAMDEN         CLOUDY    70  68  94 CALM      29.92S                  
LANCASTER      PTSUNNY   73  66  78 S6        29.90F                  
WINNSBORO      LGT RAIN  68  66  94 CALM      29.92R                  


...EASTERN AND COASTAL SOUTH CAROLINA...
  
CITY           SKY/WX    TMP DP  RH WIND       PRES   REMARKS
MYRTLE BEACH   PTSUNNY   77  75  93 W8        29.93S                  
N MYRTLE BCH   CLOUDY    76  72  87 W5        29.92S                  
CONWAY         PTSUNNY   73  72  94 SW3       29.93S                  
MARION         PTSUNNY   75  72  88 SW3       29.92S                  
HARTSVILLE     PTSUNNY   72  66  83 CALM      29.92R                  
FLORENCE       PTSUNNY   76  68  76 W5        29.91S                  
DARLINGTON     CLOUDY    73  68  84 SW5       29.92S                  
CHARLESTON APT CLOUDY    77  71  82 SW5       29.92F                  
MOUNT PLEASANT   N/A     77  75  94 CALM      29.92F                  
WALTERBORO     CLOUDY    72  72 100 S3        29.93S                  
BEAUFORT       PTSUNNY   78  72  81 SW8       29.92S                  
HILTON HEAD    SUNNY     79  72  78 SW9       29.93F                  


...EASTERN GEORGIA...
  
CITY           SKY/WX    TMP DP  RH WIND       PRES   REMARKS
AUGUSTA BUSH F LGT RAIN  69  68  96 SW6       29.90R                  
AUGUSTA DANIEL CLOUDY    70  68  93 CALM      29.92R                  
THOMSON        CLOUDY    69  68  95 W3        29.93S                  
WASHINGTON     LGT RAIN  67  67  98 S7        29.93S                  
CLAXTON        CLOUDY    74  72  93 CALM      29.94S                  
SYLVANIA       CLOUDY    70  69  98 CALM      29.94R                  
STATESBORO     CLOUDY    72  69  90 SW3       29.93S                  
SAVANNAH       PTSUNNY   77  70  79 SW12G22   29.93S                  


...SOUTHERN NORTH CAROLINA...
  
CITY           SKY/WX    TMP DP  RH WIND       PRES   REMARKS
CHARLOTTE      PTSUNNY   70  65  84 W9        29.91R                  
MONROE         MOSUNNY   72  66  81 SW10      29.90S                  
WADESBORO      MOSUNNY   71  68  90 SW3       29.91R                  
ROCKINGHAM     PTSUNNY   73  66  81 SW9       29.90F                  
RUTHERFORDTON  CLOUDY    68  68 100 S7        29.92S                  
ASHEVILLE      CLOUDY    66  62  87 CALM      29.95R                  

$$
  

SKY/WX - Weather  TMP - Temperature  DP - Dew Point  RH - Humidity
WIND - Wind Direction/Speed PRES - Barometric Pressure VSB - Visibility
WCI - Wind Chill Index E13G22 Wind - East Wind 13 mph/Gusts of 22 mph

Trending Headlines

Trending Entertainment Headlines

Greenbrier Radar Loop

Use the map search tool if you want to place a location marker on the radar map...

Greenbrier Quick Facts

National Two Day Weather Forecast


E-mail the Greenbrier Weather Forecast

Voice your opinion or tell us about page issues...